TimeAEST,TemperatureF,Dew PointF,Humidity,Sea Level PressureIn,VisibilityMPH,Wind Direction,Wind SpeedMPH,Gust SpeedMPH,PrecipitationIn,Events,Conditions,WindDirDegrees,DateUTC
12:00 AM,68,64,84,30.06,,NNE,6.9,,,,,20,2013-08-17 14:00:00
12:00 AM,68.0,64.4,88,30.04,-9999.0,NNE,6.9,-,N/A,,Unknown,20,2013-08-17 14:00:00
12:30 AM,68.0,64.4,88,30.04,-9999.0,North,4.6,-,N/A,,Unknown,360,2013-08-17 14:30:00
1:00 AM,68.0,64.4,88,30.04,-9999.0,North,5.8,-,N/A,,Unknown,10,2013-08-17 15:00:00
1:30 AM,68.0,66.2,94,30.04,-9999.0,North,4.6,-,N/A,,Unknown,350,2013-08-17 15:30:00
2:00 AM,68.0,64.4,88,30.01,-9999.0,North,3.5,-,N/A,,Unknown,350,2013-08-17 16:00:00
2:30 AM,68.0,66.2,94,30.01,-9999.0,NNW,5.8,-,N/A,,Unknown,330,2013-08-17 16:30:00
3:00 AM,67,66,95,30.01,,NW,5.8,,,,,320,2013-08-17 17:00:00
3:00 AM,68.0,66.2,94,30.01,-9999.0,NW,5.8,-,N/A,,Unknown,320,2013-08-17 17:00:00
3:30 AM,66.2,66.2,100,30.01,-9999.0,NW,5.8,-,N/A,,Unknown,320,2013-08-17 17:30:00
4:00 AM,66.2,66.2,100,30.01,-9999.0,NW,4.6,-,N/A,,Unknown,310,2013-08-17 18:00:00
4:30 AM,66.2,66.2,100,30.01,-9999.0,NW,5.8,-,N/A,,Unknown,320,2013-08-17 18:30:00
5:00 AM,66.2,66.2,100,30.01,-9999.0,NW,5.8,-,N/A,,Unknown,320,2013-08-17 19:00:00
5:30 AM,66.2,66.2,100,30.04,-9999.0,NW,5.8,-,N/A,,Unknown,320,2013-08-17 19:30:00
6:00 AM,66.2,66.2,100,30.04,-9999.0,NW,4.6,-,N/A,,Unknown,320,2013-08-17 20:00:00
6:30 AM,68.0,66.2,94,30.04,-9999.0,WNW,4.6,-,N/A,,Unknown,290,2013-08-17 20:30:00
7:00 AM,68.0,66.2,94,30.06,-9999.0,West,3.5,-,N/A,,Unknown,260,2013-08-17 21:00:00
7:30 AM,69.8,68.0,94,30.06,-9999.0,SSW,3.5,-,N/A,,Unknown,210,2013-08-17 21:30:00
8:00 AM,69.8,66.2,88,30.06,-9999.0,SSW,3.5,-,N/A,,Unknown,210,2013-08-17 22:00:00
8:30 AM,71.6,66.2,83,30.06,-9999.0,Calm,Calm,-,N/A,,Unknown,0,2013-08-17 22:30:00
9:00 AM,72,65,74,30.09,,Calm,Calm,,,,,,2013-08-17 23:00:00
9:00 AM,73.4,66.2,78,30.09,-9999.0,Calm,Calm,-,N/A,,Unknown,0,2013-08-17 23:00:00
9:30 AM,71.6,66.2,83,30.09,-9999.0,SSE,4.6,-,N/A,,Unknown,160,2013-08-17 23:30:00
10:00 AM,75.2,66.2,73,30.09,-9999.0,SSE,6.9,-,N/A,,Unknown,150,2013-08-18 00:00:00
10:30 AM,75.2,68.0,78,30.06,-9999.0,SE,8.1,-,N/A,,Unknown,140,2013-08-18 00:30:00
11:00 AM,75.2,66.2,73,30.06,-9999.0,SE,8.1,-,N/A,,Unknown,140,2013-08-18 01:00:00
11:30 AM,75.2,66.2,73,30.06,-9999.0,SE,9.2,-,N/A,,Unknown,140,2013-08-18 01:30:00
12:00 PM,74,66,68,30.05,,SE,8.1,,,,,130,2013-08-18 02:00:00
12:00 PM,73.4,66.2,78,30.04,-9999.0,SE,8.1,-,N/A,,Unknown,130,2013-08-18 02:00:00
12:30 PM,75.2,68.0,78,30.04,-9999.0,ESE,8.1,-,N/A,,Unknown,120,2013-08-18 02:30:00
1:00 PM,75.2,68.0,78,30.01,-9999.0,SE,9.2,-,N/A,,Unknown,130,2013-08-18 03:00:00
1:30 PM,75.2,68.0,78,29.98,-9999.0,ESE,11.5,-,N/A,,Unknown,110,2013-08-18 03:30:00
2:00 PM,73.4,66.2,78,29.98,-9999.0,East,12.7,-,N/A,,Unknown,100,2013-08-18 04:00:00
2:30 PM,73.4,66.2,78,29.98,-9999.0,ESE,12.7,-,N/A,,Unknown,110,2013-08-18 04:30:00
3:00 PM,73,66,74,29.99,,ESE,12.7,,,,,110,2013-08-18 05:00:00
3:00 PM,73.4,66.2,78,29.98,-9999.0,ESE,12.7,-,N/A,,Unknown,110,2013-08-18 05:00:00
3:30 PM,73.4,66.2,78,29.98,-9999.0,East,12.7,-,N/A,,Unknown,100,2013-08-18 05:30:00
4:00 PM,71.6,66.2,83,29.98,-9999.0,East,13.8,-,N/A,,Unknown,100,2013-08-18 06:00:00
4:30 PM,71.6,66.2,83,29.98,-9999.0,East,13.8,-,N/A,,Unknown,100,2013-08-18 06:30:00
5:00 PM,71.6,66.2,83,30.01,-9999.0,East,11.5,-,N/A,,Unknown,80,2013-08-18 07:00:00
5:30 PM,71.6,66.2,83,30.01,-9999.0,ENE,11.5,-,N/A,,Unknown,70,2013-08-18 07:30:00
6:00 PM,71,66,80,30.01,,ENE,10.4,,,,,60,2013-08-18 08:00:00
6:00 PM,71.6,66.2,83,30.01,-9999.0,ENE,10.4,-,N/A,,Unknown,60,2013-08-18 08:00:00
6:30 PM,69.8,66.2,88,30.01,-9999.0,ENE,6.9,-,N/A,,Unknown,60,2013-08-18 08:30:00
7:00 PM,69.8,66.2,88,30.04,-9999.0,NE,5.8,-,N/A,,Unknown,50,2013-08-18 09:00:00
7:30 PM,69.8,66.2,88,30.04,-9999.0,NE,5.8,-,N/A,,Unknown,50,2013-08-18 09:30:00
8:00 PM,69.8,64.4,83,30.04,-9999.0,ENE,5.8,-,N/A,,Unknown,60,2013-08-18 10:00:00
8:30 PM,69.8,64.4,83,30.06,-9999.0,NE,6.9,-,N/A,,Unknown,50,2013-08-18 10:30:00
9:00 PM,70,66,82,30.06,,NE,6.9,,,,,50,2013-08-18 11:00:00
9:00 PM,69.8,66.2,88,30.06,-9999.0,NE,6.9,-,N/A,,Unknown,50,2013-08-18 11:00:00
9:30 PM,69.8,66.2,88,30.06,-9999.0,NNE,5.8,-,N/A,,Unknown,30,2013-08-18 11:30:00
10:00 PM,69.8,66.2,88,30.06,-9999.0,NNE,5.8,-,N/A,,Unknown,30,2013-08-18 12:00:00
10:30 PM,69.8,66.2,88,30.06,-9999.0,ENE,4.6,-,N/A,,Unknown,60,2013-08-18 12:30:00
11:00 PM,69.8,66.2,88,30.04,-9999.0,ENE,5.8,-,N/A,,Unknown,60,2013-08-18 13:00:00
11:30 PM,69.8,66.2,88,30.04,-9999.0,NE,5.8,-,N/A,,Unknown,50,2013-08-18 13:30:00